Regional Weather Roundup
Issued by NWS New Orleans/Baton Rouge, LA

Home | Current Version | Previous Version | Text Only | Print | Product List | Glossary On
Versions: 1 2 3 4 5 6 7 8 9 10 11 12 13 14 15 16 17 18 19 20 21 22 23 24 25 26 27 28 29 30 31 32 33 34 35 36 37 38 39 40 41 42 43 44 45 46 47 48 49 50
880
ASUS44 KLIX 221901
RWRLIX
NEW ORLEANS REGIONAL WEATHER ROUNDUP
NATIONAL WEATHER SERVICE NEW ORLEANS LA
100 PM CST MON DEC 22 2014

NOTE: "FAIR" INDICATES FEW OR NO CLOUDS BELOW 12,000 FEET WITH NO
      SIGNIFICANT WEATHER AND/OR OBSTRUCTIONS TO VISIBILITY.
      SKY/WX - SKY CONDITION AND SIGNIFICANT WEATHER.
      TMP - AIR TEMPERATURE.     DP    - DEWPOINT TEMPERATURE.
      RH  - RELATIVE HUMIDITY.   PRES  - PRESSURE.
      HI  - HEAT INDEX.          WCI   - WIND CHILL INDEX.

*  THESE STATIONS ARE NOT NWS OR FAA STATIONS AND ARE NOT UNDER
   NWS QUALITY CONTROL.

LAZ038-040-048-061>063-065>067-069-222000-
SOUTHEAST LOUISIANA

CITY           SKY/WX    TMP DP  RH WIND       PRES   REMARKS
N.O. AUDUBON     N/A     74  67  79 MISG        N/A
N.O. INTL ARPT PTSUNNY   75  66  73 SW14      29.74F
N.O. LAKEFRONT PTSUNNY   74  65  73 S22G29    29.74F
N.O. DOWNTOWN* CLOUDY    72  64  78 S12G21    29.75F
SLIDELL        PTSUNNY   72  65  78 S8        29.74F
BATON ROUGE    PTSUNNY   71  63  75 S9        29.71F
BOOTHVILLE     MOSUNNY   72  67  84 S14       29.78F
BELLE CHASSE   CLOUDY    76  67  73 S21G26    29.75F
BOGALUSA*        N/A     72  64  75 S9        29.76F
GALLIANO*      NOT AVBL
NEW ROADS*     NOT AVBL
GONZALES*      NOT AVBL
HAMMOND*       NOT AVBL
HOUMA*         PTSUNNY   75  68  78 S14G23    29.75F
PORT FOURCHON* PTCLDY    73  68  83 S13G18    29.80F

$$

MSZ070-080>082-222000-
SOUTHERN MISSISSIPPI

CITY           SKY/WX    TMP DP  RH WIND       PRES   REMARKS
MCCOMB         LGT RAIN  64  62  93 S7        29.72F FOG
GULFPORT       CLOUDY    66  64  93 S6        29.77F
BILOXI         NOT AVBL
PASCAGOULA     CLOUDY    69  65  86 S13       29.77F
STENNIS ARPT*  CLOUDY    66  63  88 SE7       29.76F FOG

$$

COASTAL OBSERVATIONS
LAKE AND NEARSHORE STATIONS

STATION/POSITION TIME  TEMP    WIND        PRES    WAVE
                       AIR SEA DIR/SP/G            HT/PER
                 (UTC) (F)     (DEG/KT/KT) (MB)    (FT/S)
PASCAGOULA       1800   68     130/ 10/ 16 1008.0
WAVELAND YACHT   1800   63     150/  5/  6 1007.4
GRAND ISLE       1800   70 61  210/ 10/ 14 1008.7
SOUTHWEST PASS   1800   67                 1008.9
NEW CANAL        1800   73 57  200/  8/ 16 1007.7
SHELL BEACH      1800   72 58  190/ 14/ 20 1007.7

OFFSHORE STATIONS

STATION/POSITION TIME  TEMP    WIND        PRES    WAVE
                       AIR SEA DIR/SP/G            HT/PER
                 (UTC) (F)     (DEG/KT/KT) (MB)    (FT/S)
64 S DAUPHIN ISL 1900   74 74  230/ 17/ 21 1008.7    3/ 5

$$




USA.gov is the U.S. government's official web portal to all federal, state and local government web resources and services.